GW2699 Weather Reports


Display with metric or nautical units.
time (UTC)temp
F
wind
direction
speed
MPH
gust
MPH
rain 1hr
in
rain 24hr
in
rain mn
in
humidity
%
barometer
mb
20260507213052 63 240 3.0 8.0 0.00 0.13 0.01 33 1004.0
20260507212544 63 306 3.0 8.0 0.00 0.13 0.01 31 1004.2
20260507212043 63 282 2.0 7.0 0.00 0.13 0.01 33 1004.2
20260507211631 63 293 1.0 12.0 0.00 0.13 0.01 35 1004.1
20260507211043 63 76 1.0 12.0 0.00 0.13 0.01 35 1004.2
20260507210546 63 260 2.0 9.0 0.00 0.13 0.01 34 1004.3
20260507210055 63 65 2.0 12.0 0.00 0.13 0.01 32 1004.2
20260507205544 63 235 5.0 12.0 0.00 0.23 0.01 32 1004.2
20260507205044 64 340 3.0 8.0 0.00 0.23 0.01 32 1004.1
20260507204558 64 279 3.0 8.0 0.00 0.23 0.01 31 1004.2
20260507204044 64 287 1.0 7.0 0.00 0.23 0.01 35 1004.1
20260507203543 64 267 2.0 9.0 0.00 0.23 0.01 34 1004.1
20260507203051 64 319 4.0 9.0 0.00 0.23 0.01 34 1004.0
20260507202543 63 19 2.0 8.0 0.00 0.23 0.01 35 1003.9
20260507202047 63 265 2.0 8.0 0.00 0.23 0.01 32 1004.1
20260507201557 62 5 2.0 6.0 0.00 0.23 0.01 32 1004.1
20260507201043 63 238 1.0 6.0 0.00 0.23 0.01 35 1004.2
20260507200542 64 316 3.0 6.0 0.00 0.23 0.01 35 1004.2
20260507200108 62 352 2.0 8.0 0.00 0.23 0.01 39 1004.1
20260507195545 63 292 3.0 8.0 0.00 0.27 0.01 34 1004.2
20260507195044 64 286 3.0 8.0 0.00 0.27 0.01 37 1004.1
20260507194601 64 326 3.0 7.0 0.00 0.27 0.01 33 1004.2
20260507194044 64 298 3.0 10.0 0.00 0.27 0.01 36 1004.3
20260507193543 63 315 3.0 12.0 0.00 0.27 0.01 32 1004.3
20260507193056 64 297 4.0 12.0 0.00 0.27 0.01 34 1004.4
20260507192543 64 352 3.0 11.0 0.00 0.27 0.01 36 1004.7
20260507192047 64 110 4.0 13.0 0.00 0.27 0.01 32 1004.5
20260507191555 64 251 4.0 13.0 0.00 0.27 0.01 38 1004.4
20260507191043 64 191 3.0 10.0 0.00 0.27 0.01 34 1004.5
20260507190544 64 292 2.0 9.0 0.00 0.27 0.01 35 1004.7
20260507190057 63 220 3.0 10.0 0.00 0.27 0.01 34 1004.7
20260507185543 64 291 4.0 10.0 0.00 0.32 0.01 34 1004.8
20260507185044 64 234 3.0 12.0 0.00 0.32 0.01 36 1004.8
20260507184551 64 321 2.0 12.0 0.00 0.32 0.01 36 1004.7
20260507184043 64 202 3.0 10.0 0.00 0.32 0.01 34 1004.8
20260507183544 64 274 3.0 10.0 0.00 0.32 0.01 36 1004.7
20260507183052 65 291 4.0 10.0 0.00 0.32 0.01 34 1004.8
20260507182543 65 302 2.0 9.0 0.00 0.32 0.01 37 1004.7
20260507182044 64 292 4.0 13.0 0.00 0.32 0.01 35 1004.8
20260507181601 64 308 4.0 16.0 0.00 0.32 0.01 37 1004.8
20260507181043 64 205 4.0 16.0 0.00 0.32 0.01 36 1004.8
20260507180544 64 285 4.0 11.0 0.00 0.32 0.01 38 1004.8
20260507180053 64 157 3.0 11.0 0.00 0.32 0.01 37 1004.8
20260507175543 63 333 3.0 11.0 0.00 0.32 0.01 41 1004.7
20260507175044 64 308 3.0 7.0 0.00 0.32 0.01 38 1004.7
20260507174610 64 301 2.0 11.0 0.00 0.32 0.01 39 1004.7
20260507174044 64 243 3.0 11.0 0.00 0.32 0.01 40 1004.7
20260507173544 64 313 3.0 11.0 0.00 0.32 0.01 37 1004.8
20260507173057 63 315 3.0 9.0 0.00 0.32 0.01 40 1004.8
20260507172543 63 254 2.0 9.0 0.00 0.32 0.01 40 1004.9
20260507172043 62 312 3.0 9.0 0.00 0.32 0.01 40 1005.0
20260507171559 62 318 3.0 10.0 0.00 0.32 0.01 40 1005.0
20260507171044 61 221 4.0 10.0 0.00 0.32 0.01 43 1004.9
20260507170544 60 159 3.0 10.0 0.00 0.32 0.01 46 1005.2
20260507170052 60 325 3.0 11.0 0.00 0.32 0.01 45 1005.3
20260507165543 61 286 4.0 11.0 0.00 0.32 0.01 46 1005.3
20260507165043 61 216 3.0 9.0 0.00 0.32 0.01 50 1005.3
20260507164552 60 259 2.0 6.0 0.00 0.32 0.01 49 1005.3
20260507164049 61 270 2.0 6.0 0.00 0.32 0.01 51 1005.4
20260507163544 61 304 2.0 8.0 0.00 0.32 0.01 53 1005.4
20260507163054 61 287 2.0 10.0 0.00 0.32 0.01 52 1005.4
20260507162544 61 257 4.0 10.0 0.00 0.32 0.01 50 1005.4
20260507162044 61 320 2.0 10.0 0.00 0.32 0.01 55 1005.5
20260507161558 60 5 2.0 10.0 0.00 0.32 0.01 54 1005.6
20260507161044 59 232 4.0 10.0 0.00 0.32 0.01 51 1005.7
20260507160544 59 159 2.0 9.0 0.00 0.32 0.01 54 1005.6
20260507160056 59 273 2.0 12.0 0.00 0.32 0.01 54 1005.8
20260507155543 59 210 5.0 12.0 0.00 0.32 0.01 51 1005.7
20260507155043 61 307 3.0 6.0 0.00 0.32 0.01 51 1005.8
20260507154559 61 80 2.0 10.0 0.00 0.32 0.01 55 1005.8
20260507154043 60 307 3.0 10.0 0.00 0.32 0.01 52 1006.0
20260507153543 60 298 3.0 9.0 0.00 0.32 0.01 52 1006.0
20260507153059 60 222 2.0 6.0 0.00 0.32 0.01 54 1006.2
20260507152544 60 328 2.0 9.0 0.00 0.32 0.01 55 1006.1
20260507152045 60 210 3.0 11.0 0.00 0.32 0.01 55 1006.2
20260507151550 60 165 5.0 11.0 0.00 0.32 0.01 54 1006.2
20260507151044 59 242 2.0 7.0 0.00 0.32 0.01 56 1006.3
20260507150542 58 310 2.0 12.0 0.00 0.32 0.01 55 1006.5
20260507150054 58 239 3.0 12.0 0.00 0.32 0.01 57 1006.4
20260507145542 60 292 1.0 12.0 0.00 0.32 0.01 53 1006.5
20260507145042 60 304 2.0 12.0 0.00 0.32 0.01 57 1006.4
20260507144553 60 251 3.0 11.0 0.00 0.32 0.01 52 1006.5
20260507144043 60 300 2.0 11.0 0.00 0.32 0.01 56 1006.4
20260507143542 60 341 3.0 11.0 0.00 0.32 0.01 53 1006.2
20260507143046 60 246 2.0 8.0 0.00 0.32 0.01 57 1006.1
20260507142542 59 280 3.0 8.0 0.00 0.32 0.01 53 1006.1
20260507142042 60 327 2.0 7.0 0.00 0.32 0.01 57 1006.1
20260507141548 60 221 2.0 7.0 0.00 0.32 0.01 57 1006.1
20260507141042 59 287 1.0 3.0 0.00 0.32 0.01 54 1006.2
20260507140542 59 286 0.0 4.0 0.00 0.32 0.01 59 1006.1
20260507140051 59 294 1.0 4.0 0.00 0.32 0.01 59 1006.1
20260507135542 58 336 1.0 7.0 0.00 0.32 0.01 62 1006.2
20260507135043 57 273 2.0 7.0 0.00 0.32 0.01 56 1006.2
20260507134552 57 0 2.0 6.0 0.00 0.32 0.01 56 1006.3
20260507134041 57 231 3.0 8.0 0.00 0.32 0.01 61 1006.4
20260507133543 57 197 2.0 8.0 0.00 0.32 0.01 63 1006.5
20260507133055 57 221 2.0 7.0 0.00 0.32 0.01 59 1006.7
20260507132541 56 218 2.0 7.0 0.00 0.32 0.01 62 1006.7
20260507132045 56 254 2.0 6.0 0.00 0.32 0.01 60 1006.8
20260507131559 56 231 1.0 6.0 0.00 0.32 0.01 65 1006.7
20260507131042 55 0 0.0 5.0 0.00 0.32 0.01 64 1006.8
20260507130542 55 330 1.0 5.0 0.00 0.32 0.01 68 1006.7
20260507130105 54 198 1.0 5.0 0.00 0.32 0.01 68 1006.8
20260507125542 54 252 1.0 5.0 0.00 0.32 0.01 71 1006.9
20260507125042 53 273 1.0 4.0 0.00 0.32 0.01 71 1006.9
20260507124553 53 0 1.0 4.0 0.00 0.32 0.01 70 1006.8
20260507124042 52 0 1.0 4.0 0.00 0.32 0.01 71 1006.9
20260507123542 52 0 1.0 4.0 0.00 0.32 0.01 73 1007.0
20260507123050 52 254 0.0 4.0 0.00 0.32 0.01 72 1007.0
20260507122541 52 254 0.0 4.0 0.00 0.32 0.01 74 1007.0
20260507122042 51 252 1.0 4.0 0.00 0.32 0.01 74 1006.9
20260507121559 51 252 2.0 8.0 0.00 0.32 0.01 76 1006.9
20260507121044 51 246 3.0 8.0 0.00 0.32 0.01 77 1006.9
20260507120542 51 309 1.0 5.0 0.00 0.32 0.01 79 1006.9
20260507120045 50 0 0.0 7.0 0.00 0.32 0.01 79 1006.9
20260507115542 50 0 0.0 7.0 0.00 0.32 0.01 80 1006.8
20260507115043 50 224 0.0 1.0 0.00 0.32 0.01 80 1006.8
20260507114603 50 0 0.0 0.0 0.00 0.32 0.01 81 1006.8
20260507114042 50 0 0.0 0.0 0.00 0.32 0.01 81 1006.7
20260507113543 49 0 0.0 1.0 0.00 0.32 0.01 83 1006.9
20260507113052 49 0 0.0 1.0 0.00 0.32 0.01 84 1006.8
20260507112544 49 0 0.0 1.0 0.00 0.32 0.01 82 1007.1
20260507112041 49 0 0.0 0.0 0.00 0.32 0.01 84 1007.1
20260507111604 49 0 0.0 2.0 0.00 0.32 0.01 86 1007.0
20260507111042 48 0 0.0 2.0 0.00 0.32 0.01 85 1006.8
20260507110543 48 246 0.0 2.0 0.00 0.32 0.01 86 1006.8
20260507110049 48 0 0.0 2.0 0.00 0.32 0.01 86 1006.7
20260507105542 48 0 0.0 2.0 0.00 0.32 0.01 86 1006.8
20260507105041 48 246 0.0 3.0 0.00 0.32 0.01 87 1006.8
20260507104551 48 0 0.0 3.0 0.00 0.32 0.01 87 1006.6
20260507104045 48 329 0.0 3.0 0.00 0.32 0.01 86 1006.7
20260507103542 48 0 0.0 2.0 0.00 0.32 0.01 87 1006.7
20260507103054 48 0 0.0 2.0 0.00 0.32 0.01 87 1006.9
20260507102542 48 0 0.0 2.0 0.00 0.32 0.01 87 1006.6
20260507102042 48 0 0.0 2.0 0.00 0.32 0.01 87 1006.6
20260507101603 48 240 0.0 2.0 0.00 0.32 0.01 87 1006.6
20260507101042 48 240 0.0 2.0 0.00 0.32 0.01 87 1006.8
20260507100542 48 0 0.0 1.0 0.00 0.32 0.01 87 1007.0
20260507100055 48 240 0.0 4.0 0.00 0.32 0.01 87 1006.8
20260507095542 48 0 0.0 4.0 0.00 0.32 0.01 87 1006.9
20260507095043 48 0 0.0 2.0 0.00 0.32 0.01 87 1006.9
20260507094549 48 279 0.0 2.0 0.00 0.32 0.01 87 1006.7
20260507094041 48 279 0.0 2.0 0.00 0.32 0.01 88 1006.5
20260507093542 48 0 0.0 1.0 0.00 0.32 0.01 87 1006.4
20260507093053 48 0 0.0 3.0 0.00 0.32 0.01 87 1006.5
20260507092543 48 279 0.0 3.0 0.00 0.32 0.01 87 1006.7
20260507092042 48 0 0.0 1.0 0.00 0.32 0.01 87 1006.8
20260507091549 48 0 0.0 3.0 0.01 0.32 0.01 87 1006.1
20260507091043 48 0 0.0 3.0 0.01 0.32 0.01 87 1006.1
20260507090542 48 288 0.0 3.0 0.01 0.32 0.01 88 1006.7
20260507090044 48 288 0.0 3.0 0.01 0.32 0.01 87 1006.6
20260507085542 48 0 0.0 3.0 0.01 0.32 0.01 88 1006.2
20260507085043 48 0 0.0 0.0 0.01 0.32 0.01 88 1005.9
20260507084548 48 0 0.0 0.0 0.01 0.32 0.01 88 1005.9
20260507084044 48 0 0.0 0.0 0.01 0.32 0.01 88 1006.0
20260507083543 48 0 0.0 0.0 0.01 0.32 0.01 87 1005.9
20260507083050 48 0 0.0 0.0 0.01 0.32 0.01 88 1005.9
20260507082542 49 0 0.0 0.0 0.01 0.32 0.01 87 1005.7
20260507082046 49 0 0.0 0.0 0.01 0.32 0.01 87 1005.8
20260507081554 49 0 0.0 0.0 0.00 0.31 0.00 85 1005.8
20260507081042 50 0 0.0 4.0 0.00 0.31 0.00 84 1005.9
20260507080543 50 0 0.0 4.0 0.00 0.31 0.00 84 1006.2
20260507080052 50 0 1.0 4.0 0.00 0.31 0.00 83 1006.1
20260507075542 50 265 1.0 4.0 0.00 0.31 0.00 84 1005.9
20260507075042 50 0 0.0 4.0 0.00 0.31 0.00 84 1005.9
20260507074601 50 294 1.0 7.0 0.00 0.31 0.00 84 1005.8
20260507074040 50 0 1.0 7.0 0.00 0.31 0.00 84 1005.7
20260507073547 50 321 1.0 4.0 0.00 0.31 0.00 85 1005.7
20260507073049 50 0 0.0 5.0 0.00 0.31 0.00 85 1005.7
20260507072543 50 0 1.0 5.0 0.00 0.31 0.00 85 1005.7
20260507072042 50 0 0.0 5.0 0.00 0.31 0.00 85 1005.5
20260507071546 50 309 2.0 7.0 0.00 0.31 0.00 85 1005.8
20260507071043 50 321 2.0 7.0 0.00 0.31 0.00 84 1005.8
20260507070543 50 294 1.0 11.0 0.00 0.31 0.00 85 1005.5
20260507070048 50 22 1.0 11.0 0.00 0.31 0.00 85 1005.4
20260507065542 50 261 1.0 9.0 0.00 0.31 0.00 84 1005.7
20260507065042 51 194 2.0 9.0 0.00 0.31 0.00 85 1005.6
20260507064550 50 280 1.0 9.0 0.00 0.31 0.00 85 1005.5
20260507064042 50 0 2.0 9.0 0.00 0.31 0.00 86 1005.3
20260507063542 51 279 0.0 5.0 0.00 0.31 0.00 86 1005.2
20260507063051 51 0 1.0 7.0 0.00 0.31 0.00 87 1005.4
20260507062543 51 166 1.0 7.0 0.00 0.31 0.00 87 1005.2
20260507062044 51 246 1.0 7.0 0.00 0.31 0.00 87 1005.3
20260507061548 51 0 0.0 7.0 0.00 0.31 0.00 87 1005.5
20260507061044 51 204 1.0 6.0 0.00 0.31 0.00 87 1005.5
20260507060542 51 175 1.0 5.0 0.00 0.31 0.00 86 1005.6
20260507060048 51 0 1.0 5.0 0.00 0.31 0.00 87 1005.5
20260507055543 51 0 1.0 5.0 0.00 0.31 0.00 87 1005.5
20260507055045 52 181 0.0 8.0 0.00 0.31 0.00 87 1005.5
20260507054607 52 144 2.0 8.0 0.00 0.31 0.00 87 1005.5
20260507054042 52 182 0.0 5.0 0.00 0.31 0.00 87 1005.2
20260507053545 52 221 1.0 5.0 0.00 0.31 0.00 87 1005.4
20260507053053 52 0 1.0 6.0 0.00 0.31 0.00 87 1005.5
20260507052542 52 0 1.0 6.0 0.00 0.31 0.00 87 1005.4
20260507052042 52 261 2.0 7.0 0.00 0.31 0.00 87 1005.4
20260507051550 53 279 1.0 7.0 0.00 0.31 0.00 86 1005.1
20260507051048 53 217 0.0 6.0 0.00 0.31 0.00 87 1005.1
20260507050543 53 274 2.0 6.0 0.00 0.31 0.00 87 1005.0
20260507050056 53 0 1.0 5.0 0.00 0.31 0.00 87 1005.1
20260507045544 53 215 0.0 7.0 0.00 0.31 0.00 87 1005.3
20260507045043 53 278 1.0 8.0 0.00 0.31 0.00 87 1005.2
20260507044554 54 0 2.0 8.0 0.00 0.31 0.00 87 1005.2
20260507044042 54 211 1.0 6.0 0.00 0.31 0.00 88 1005.3
20260507043542 54 204 1.0 6.0 0.00 0.31 0.00 88 1005.4
20260507043053 54 225 1.0 8.0 0.00 0.31 0.00 88 1005.3
20260507042543 54 248 2.0 8.0 0.00 0.31 0.00 87 1005.2
20260507042043 55 247 0.0 7.0 0.00 0.31 0.00 87 1005.0
20260507041600 55 210 1.0 7.0 0.00 0.31 0.00 87 1005.0
20260507041043 55 0 2.0 9.0 0.00 0.31 0.00 87 1005.1
20260507040543 55 254 3.0 9.0 0.00 0.31 0.00 87 1005.2
20260507040051 55 242 1.0 5.0 0.00 0.31 0.00 87 1004.9
20260507035543 55 257 1.0 6.0 0.00 0.31 0.31 86 1004.7
20260507035043 56 294 1.0 6.0 0.00 0.31 0.31 86 1004.5
20260507034556 56 297 1.0 4.0 0.00 0.31 0.31 85 1004.5
20260507034042 56 319 1.0 7.0 0.00 0.31 0.31 86 1004.5
20260507033543 56 248 2.0 13.0 0.00 0.31 0.31 87 1004.5
20260507033100 57 230 2.0 13.0 0.00 0.31 0.31 88 1004.7
20260507032543 57 309 2.0 12.0 0.00 0.31 0.31 88 1004.8
20260507032042 58 340 3.0 12.0 0.00 0.31 0.31 89 1004.7
20260507031601 59 325 3.0 11.0 0.00 0.31 0.31 90 1004.7
20260507031042 59 315 1.0 11.0 0.00 0.31 0.31 93 1004.4
20260507030541 60 319 2.0 11.0 0.00 0.31 0.31 93 1004.2
20260507030054 60 342 3.0 12.0 0.00 0.31 0.31 94 1004.2
20260507025541 60 279 3.0 12.0 0.00 0.31 0.31 94 1004.2
20260507025041 60 0 1.0 4.0 0.00 0.31 0.31 94 1003.9
20260507024548 60 197 0.0 4.0 0.00 0.31 0.31 94 1003.9
20260507024115 59 239 1.0 5.0 0.00 0.31 0.31 94 1003.9
20260507023541 60 0 0.0 5.0 0.00 0.31 0.31 94 1003.8
20260507023051 60 192 1.0 5.0 0.00 0.31 0.31 94 1004.0
20260507022542 60 189 1.0 5.0 0.00 0.31 0.31 94 1003.9
20260507022042 60 183 2.0 4.0 0.00 0.31 0.31 94 1003.7
20260507021549 59 229 1.0 4.0 0.00 0.31 0.31 94 1003.7
20260507021044 60 226 1.0 4.0 0.00 0.31 0.31 94 1003.9
20260507020542 60 217 1.0 5.0 0.00 0.31 0.31 94 1003.9
20260507020048 60 217 1.0 5.0 0.00 0.31 0.31 93 1004.0
20260507015541 60 183 1.0 5.0 0.00 0.31 0.31 94 1004.0
20260507015041 60 213 1.0 7.0 0.00 0.31 0.31 94 1004.1
20260507014600 60 215 1.0 7.0 0.00 0.31 0.31 94 1004.2
20260507014042 60 205 0.0 6.0 0.00 0.31 0.31 94 1004.2
20260507013543 60 207 1.0 6.0 0.00 0.31 0.31 94 1004.2
20260507013047 60 0 0.0 4.0 0.00 0.31 0.31 94 1004.1
20260507012542 60 0 0.0 3.0 0.00 0.31 0.31 93 1004.2
20260507012041 60 205 1.0 5.0 0.00 0.31 0.31 94 1004.2
20260507011548 60 180 2.0 5.0 0.00 0.31 0.31 93 1004.3
20260507011042 60 213 0.0 5.0 0.00 0.31 0.31 94 1004.2
20260507010542 60 0 2.0 6.0 0.00 0.31 0.31 94 1004.3
20260507010048 60 203 2.0 6.0 0.00 0.31 0.31 94 1004.3
20260507005542 60 254 0.0 7.0 0.01 0.31 0.31 94 1004.1
20260507005041 60 244 0.0 7.0 0.01 0.31 0.31 94 1004.2
20260507004550 59 200 2.0 6.0 0.01 0.31 0.31 94 1004.3
20260507004042 59 215 1.0 5.0 0.01 0.31 0.31 94 1004.3
20260507003546 60 201 1.0 8.0 0.02 0.31 0.31 94 1004.0
20260507003050 60 184 2.0 8.0 0.02 0.31 0.31 94 1004.2
20260507002541 59 248 0.0 4.0 0.02 0.31 0.31 94 1004.1
20260507002042 59 206 0.0 6.0 0.03 0.31 0.31 94 1004.1
20260507001548 59 178 0.0 8.0 0.03 0.31 0.31 94 1004.1
20260507001042 60 198 1.0 8.0 0.03 0.31 0.31 93 1004.1
20260507000545 60 232 1.0 4.0 0.03 0.31 0.31 93 1004.0
20260507000044 60 176 1.0 5.0 0.03 0.31 0.31 94 1004.1
20260506235542 60 176 1.0 5.0 0.02 0.30 0.30 94 1004.0
20260506235046 60 182 1.0 5.0 0.02 0.30 0.30 93 1004.0
20260506234546 60 49 1.0 5.0 0.02 0.30 0.30 93 1004.0
20260506234045 60 205 0.0 4.0 0.02 0.30 0.30 93 1004.0
20260506233541 60 192 1.0 4.0 0.01 0.29 0.29 93 1003.9
20260506233107 60 220 1.0 4.0 0.01 0.29 0.29 93 1004.1
20260506232542 60 53 2.0 7.0 0.00 0.28 0.28 93 1004.1
20260506232042 60 177 1.0 7.0 0.00 0.28 0.28 93 1004.2
20260506231549 60 200 1.0 6.0 0.00 0.28 0.28 93 1004.3
20260506231045 60 224 1.0 4.0 0.00 0.28 0.28 93 1004.4
20260506230544 60 111 0.0 3.0 0.01 0.28 0.28 93 1004.3
20260506230049 60 173 0.0 3.0 0.01 0.28 0.28 93 1004.3
20260506225543 60 0 0.0 4.0 0.02 0.28 0.28 93 1004.2
20260506225043 60 0 1.0 5.0 0.03 0.28 0.28 93 1004.3
20260506224554 60 226 2.0 7.0 0.04 0.28 0.28 93 1004.4
20260506224042 60 215 1.0 7.0 0.04 0.28 0.28 93 1004.4
20260506223542 60 192 2.0 7.0 0.04 0.28 0.28 93 1004.4
20260506223052 60 252 1.0 7.0 0.04 0.28 0.28 93 1004.4
20260506222543 60 171 2.0 7.0 0.05 0.28 0.28 93 1004.5
20260506222043 60 200 3.0 7.0 0.06 0.28 0.28 93 1004.5
20260506221548 60 184 1.0 6.0 0.06 0.28 0.28 93 1004.5
20260506221042 60 204 1.0 9.0 0.07 0.28 0.28 93 1004.5
20260506220543 60 188 0.0 9.0 0.07 0.27 0.27 93 1004.6
20260506220049 60 180 0.0 5.0 0.07 0.27 0.27 93 1004.7
20260506215546 61 0 1.0 5.0 0.07 0.26 0.26 93 1004.8
20260506215043 61 203 1.0 5.0 0.07 0.25 0.25 93 1004.9
20260506214551 61 190 1.0 5.0 0.07 0.24 0.24 93 1004.9
20260506214042 61 206 1.0 11.0 0.08 0.24 0.24 92 1004.9
20260506213543 61 139 2.0 11.0 0.10 0.24 0.24 92 1004.8